Regional Weather Roundup
Issued by NWS Green Bay, WI

Home | Current Version | Previous Version | Text Only | Print | Product List | Glossary On
Versions: 1 2 3 4 5 6 7 8 9 10 11 12 13 14 15 16 17 18 19 20 21 22 23 24 25 26 27 28 29 30 31 32 33 34 35 36 37 38 39 40 41 42 43 44 45 46 47 48 49 50
000
ASUS43 KGRB 260011
RWRGRB

NORTH-CENTRAL AND NORTHEAST WISCONSIN REGIONAL WEATHER ROUNDUP
NATIONAL WEATHER SERVICE GREEN BAY WI
700 PM CDT SUN SEP 25 2016

WIZ005-009-010>012-018-019-260100-
NORTH CENTRAL WISCONSIN

CITY           SKY/WX    TMP DP  RH WIND       PRES   REMARKS
IRONWOOD       CLOUDY    62  51  67 SW12      29.82R
MANITOWISH WTR MOCLDY    60  57  88 W8        29.84R
ARBOR VITAE    CLOUDY    62  54  74 W9G22     29.84R
EAGLE RIVER    CLOUDY    63  59  87 SW7       29.83R
LAND O LAKES   CLOUDY    64  57  78 SW7G16    29.84R
RHINELANDER    CLOUDY    63  55  75 W8        29.86R
PHILLIPS       CLOUDY    60  52  74 W12G17    29.86R
ANTIGO         MOCLDY    65  62  88 W14G23    29.85R
TOMAHAWK       CLOUDY    61  54  76 CALM      29.86R
MERRILL        CLOUDY    63  56  80 W7        29.87R
$$

WIZ013-073-260100-
NORTHEAST WISCONSIN

CITY           SKY/WX    TMP DP  RH WIND       PRES   REMARKS
IRON MOUNTAIN  CLOUDY    64  62  93 SE6       29.81F
MARINETTE        N/A    N/A N/A N/A MISG        N/A
OCONTO         CLOUDY    65  64  96 S6        29.82F
$$

WIZ017-030-035>037-045-260100-
CENTRAL WISCONSIN

CITY           SKY/WX    TMP DP  RH WIND       PRES   REMARKS
MEDFORD        MOCLDY    61  55  79 W10G16    29.88R
WAUSAU         CLOUDY    64  54  69 W12       29.86R
MOSINEE        CLEAR     63  55  77 W12       29.88R
MARSHFIELD     CLOUDY    63  54  72 W8        29.88R
WISC RAPIDS    PTCLDY    65  55  70 W12       29.90R
STEVENS POINT  CLOUDY    64  57  78 W8G21     29.88R
WAUPACA        CLOUDY    73  70  93 SW7       29.85R
SHAWANO        PTCLDY    72  69  92 CALM      29.83S
CLINTONVILLE   NOT AVBL
WAUTOMA        CLOUDY    71  63  75 W18G25    29.88R
$$

WIZ038-039-048-051-260100-
FOX VALLEY

CITY           SKY/WX    TMP DP  RH WIND       PRES   REMARKS
NWS GREEN BAY  PTCLDY    67  67 100 S8        29.84S
APPLETON       DRIZZLE   70  70 100 S6        29.83S FOG
OSHKOSH        LGT RAIN  73  67  81 VRB7      29.85S
FOND DU LAC    CLOUDY    71  69  93 S5        29.86S
$$

WIZ022-050-052-260100-
EAST CENTRAL WISCONSIN

CITY           SKY/WX    TMP DP  RH WIND       PRES   REMARKS
EPHRAIM        CLOUDY    65  65  99 S14G21    29.84F
WASHINGTON ISL HVY RAIN  65  64  97 S6G16     29.85F
STURGEON BAY   CLOUDY    66  64  93 S14       29.85F
MANITOWOC      RAIN      67  65  93 S15G21    29.86R FOG
SHEBOYGAN      CLOUDY    68  65  90 S3        29.88R
$$

LMZ563-521-522-541>543-260100-
LAKESHORE

STATION/POSITION TIME  TEMP    WIND        PRES    VSBY  WAVE
                       AIR SEA DIR/SP/G                  HT/PER
                 (UTC) (F)     (DEG/KT/KT) (MB)    (MI)  (FT/S)
SHEBOYGAN LKSHOR 0000   68     190/ 18/ 21 1010.9R
KEWAUNEE LKSHORE 2300   67     190/ 13/ 19 1010.6F
NORTHPORT PIER   2300   67     190/  3/ 10 1011.2R
N MID LAKE BUOY  2350   68 68  160/ 17/ 21 1009.7F         3/ 5
CHAMBERS ISLAND  2300   65     160/  7/ 19 1010.8R
MENOMINEE LKSHOR 2300   66     160/ 15/ 19 1009.7F
$$




USA.gov is the U.S. government's official web portal to all federal, state and local government web resources and services.